Карточка аэропорта UHWW

Внимание!
Информация на этой странице в стадии наполнения.
Если вы не увидели какой-то информации, или заметили неточность - пожалуйста сообщите нам!
Спасибо!
Команда RU-STAFF
Название аэропортаКневичи
Название аэропорта (англ.)Knevichi
Превышение59 ft. (18 m.)
Координаты43°23.886', 132°8.9400000000001'
Высота перехода7000ft
Эшелон переходаQNH>=1013hPa: FL80; 1013hPa>QNH>=977hPa: FL90; QNH<977hPa: FL100
Коды ответчика5050-5077
Зона ОрВДХабаровск РПИ (UHHH)
Данные METARUHWW 121930Z 00000MPS 9999 NSC 14/14 Q1007 R25L/0///70 NOSIG RMK QFE754
Проноз погоды (TAF)UHWW 121700Z 1218/1318 09003MPS 6000 FEW003 BKN016 BECMG 1219/1220 0300 FG BKN002 BECMG 1221/1223 9999 NSW BKN016CB BECMG 1300/1301 20003G08MPS BKN020CB TEMPO 1301/1310 -SHRA
NOTAMshow/hide NOTAM
AWOS   TABLE

Информация о ВПП

ВПП Длина ВПП (м.) Покрытие Курс ВПП Частота ILS
07R3500Бетон71109.3
25L3500Бетон251110.1

Диспетчерские позиции

Позывной Наименование органа УВД Частота
UHWW_TWRВладивосток-Старт119.5
UHWW_R_APPВладивосток-Круг123.4
UHWW_GNDВладивосток-Руление121.7
UHWW_APPВладивосток-Подход124.7
UHWW-FM1Машина сопровождения121.700



Спутниковое изображение